Regional Weather Roundup
Issued by NWS Upton, NY

Current Version | Previous Version | Graphics & Text | Print | Product List | Glossary Off
Versions: 1 2 3 4 5 6 7 8 9 10 11 12 13 14 15 16 17 18 19 20 21 22 23 24 25 26 27

000
ASUS41 KOKX 191505
RWROKX

Regional Weather Roundup
National Weather Service New York NY
1000 AM EST MON FEB 19 2018

Note: "FAIR" indicates few or no clouds below 12,000 feet with no
significant weather and/or obstructions to visibility.

NYZ071-072-176-178-NJZ106-104-191600-
New York City Metro Area

CITY           SKY/WX    TMP DP  RH WIND       PRES   REMARKS
Central Park   FAIR      46  33  60 VRB5      30.52F
Bronx Bot Gard   N/A     46  32  57 SE9       30.50F
Bronx Lehman C   N/A     45  34  65 S8          N/A
LaGuardia Arpt FAIR      45  33  63 S14G20    30.50F
Queens College   N/A     45  34  65 S13         N/A
Kennedy Intl   FAIR      45  36  70 S9        30.53F
Breezy Point     N/A     41 N/A N/A E5          N/A
Brooklyn Coll    N/A     45  34  65 SE8         N/A
Staten Island    N/A     45  34  65 S9          N/A
Newark/Liberty PTSUNNY   44  35  70 SE7       30.50F
Teterboro      FAIR      44  33  65 S9        30.49F
$$

NYZ177-179-078>081-191600-
Long Island New York

CITY           SKY/WX    TMP DP  RH WIND       PRES   REMARKS
Jones Beach      N/A     43 N/A N/A SE7         N/A
Wantagh          N/A     45  36  70 SE8         N/A
Hempstead      NOT AVBL
Matinecock Pt    N/A     37 N/A N/A NE7         N/A  WCI  32
Farmingdale    FAIR      46  36  68 S12       30.53F
MacArthur/ISP  FAIR      47  36  65 S13       30.53F
Shirley        FAIR      47  37  68 S12       30.54F
Mt Sinai Harb    N/A    N/A N/A N/A S9G16       N/A
Westhampton    FAIR      47  36  65 S10G18    30.55F
East Hampton   FAIR      45  36  71 S12       30.54F
Southold         N/A     46  36  66 S13         N/A
Montauk          N/A     46  37  71 S10       30.55S
$$

NYZ052-065-067-191600-
Hudson Valley

CITY           SKY/WX    TMP DP  RH WIND       PRES   REMARKS
White Plains   FAIR      40  32  73 SE10      30.49F WCI  33
Larchmont Harb   N/A     36 N/A N/A NE8         N/A  WCI  29
Croton On Huds   N/A     36 N/A N/A MISG        N/A
Somers           N/A     41  32  70 S12         N/A
Brewster         N/A     41  32  70 S6          N/A
Newburgh       SUNNY     41  30  65 W6        30.49F
Montgomery     PTSUNNY   37  27  67 N3        30.47S
Otisville        N/A     36  30  80 S7          N/A  WCI  30
Warwick          N/A     41  32  70 SW12        N/A
Suffern          N/A     39  32  75 S5          N/A
Poughkeepsie   FAIR      37  27  67 NW3       30.49F
Albany         FAIR      39  26  59 S16G23    30.41F WCI  30
$$

NJZ001-105-106-008-010-013-015-019>022-104-191600-
New Jersey

CITY           SKY/WX    TMP DP  RH WIND       PRES   REMARKS
Newark/Liberty PTSUNNY   44  35  70 SE7       30.50F
Teterboro      FAIR      44  33  65 S9        30.49F
Caldwell       FAIR      38  29  70 NW3       30.50F
Somerville     FAIR      39  33  79 MISG      30.48F
Linden         FAIR      44  34  68 CALM      30.50F
Perth Amboy      N/A     43 N/A N/A S10         N/A
Sussex         CLOUDY    34  29  82 CALM      30.46F
Andover          N/A     40  32  73 S8        30.46F WCI  34
Trenton        PTSUNNY   42  36  79 S6        30.48F
Millville      FAIR      48  39  71 VRB3      30.50S
Atlantic City  FAIR      49  41  74 S10G18    30.50S
Wrightstown    FAIR      46  37  71 S7        30.47
Toms River     FAIR      46  39  76 VRB3      30.51F
Belmar         FAIR      46  37  71 S13       30.51F
$$

PAZ047>061-062-071-191600-
Eastern Pennsylvania

CITY           SKY/WX    TMP DP  RH WIND       PRES   REMARKS
Philadelphia   PTSUNNY   46  36  68 S12       30.49F
Allentown      CLOUDY    37  29  72 NW5       30.48S WCI  33
Scranton       CLOUDY    38  28  67 S7G17     30.41R WCI  33
$$

CTZ002-004>006-009-010-012-RIZ004-006-007-MAZ004-011-015-191600-
Southern New England

 In CT

CITY           SKY/WX    TMP DP  RH WIND       PRES   REMARKS
Bradley Intl   FAIR      37  30  75 S8        30.51F WCI  31
Hartford       FAIR      42  31  64 S10G17    30.51F
Danbury        FAIR     N/A N/A N/A S9G18     30.50F
Wtrbury/Oxford FAIR      39  31  72 SW14G20   30.50F WCI  31
Norwalk Harbor   N/A     34 N/A N/A E6          N/A  WCI  29
Bridgeport     FAIR      40  34  79 CALM      30.54F
Meriden        FAIR      40  31  70 S10       30.52F WCI  33
New Haven      FAIR      41  33  73 S7        30.53F
Chester        FAIR      45  32  61 S14       30.51F
Groton         FAIR      43  36  76 S7        30.54F
Willimantic    FAIR      40  32  73 S6        30.53F

 In RI

CITY           SKY/WX    TMP DP  RH WIND       PRES   REMARKS
Providence     FAIR      42  33  70 S14       30.56S
Block Island   FAIR      44  36  73 S13       30.55S
Westerly       FAIR      44  37  76 S9        30.56S

In MA

CITY           SKY/WX    TMP DP  RH WIND       PRES   REMARKS
Boston         FAIR      40  29  64 S13       30.52F WCI  32
Worcester      FAIR      36  28  73 SW12G22   30.47F WCI  28
Westfield      FAIR      36  29  75 S13       30.49F WCI  27
Provincetown   FAIR      42  36  79 S13G20    30.57F
Nantucket      FAIR      43  37  79 S13       30.58F
$$

ANZ330-335-338-340-345-350-353-355-191600-
Coastal Marine Observations


STATION/POSITION TIME  SKY/WX   TEMP    WIND        PRES    VSBY  WAVE
                                AIR SEA DIR/SP/G                  HT/PER
                 (UTC)          (F)     (DEG/KT/KT) (MB)    (MI)  (FT/S)
NY Harb Entrance 1350            39 39  130/  2/  2 1033.5          2/ 8
20 S Fire Island 1350            44 42  170/  6/  8 1034.0          2/ 8
15 E Barnegat Li 1430               40                N/A           2/10
Hudson Canyon    1350            47 47  150/  8/ 12 1034.2          2/ 8
Kings Point      1430            40 36  210/  7/  9 1034.6
Execution Rocks  NOT AVBL
Western LI Sound NOT AVBL
Central LI Sound 1445            41      CALM  /  2   N/A           1
Robbins Reef     1436            40     130/  4/  5 1034.1
$$


>>>>>>>>>>>>>>>>>>>>>>>>>>>> KEY <<<<<<<<<<<<<<<<<<<<<<<<<<<
>                                                          <
>     SKY/WX - Sky Condition/Present Weather               <
>     TMP    - Temperature in Fahrenheit                   <
>     DP     - Dew Point in Fahrenheit                     <
>     RH     - Relative Humidity in Percent                <
>     WIND   - Direction (from) and Speed in MPH           <
>     PRES   - Mean Sea Level Pressure (inches of Hg)      <
>     WCI    - Wind Chill Index                            <
>     VSB    - Visibility in Miles                         <
>     HX     - Heat Index                                  <
>     TC     - Temperature in Celsius                      <
>     VRB    - Varibale Wind Direction                     <
>                                                          <
>>>>>>>>>>>>>>>>>>>>>>>>>>>> KEY <<<<<<<<<<<<<<<<<<<<<<<<<<<




USA.gov is the U.S. government's official web portal to all federal, state and local government web resources and services.